Tracking 29892 objects as of 21-Nov-2024
HD Live streaming from Space Station
objects crossing your sky now

STARLINK-11293

Track STARLINK-11293 now!
10-day predictions
STARLINK-11293 is classified as:


NORAD ID: 61249
Int'l Code: 2024-175G
Perigee: 365.9 km
Apogee: 367.8 km
Inclination: 53.2 °
Period: 91.7 minutes
Semi major axis: 6737 km
RCS: Unknown
Launch date: September 25, 2024
Source: United States (US)
Launch site: AIR FORCE WESTERN TEST RANGE (AFWTR)
Your satellite tracking list
Your tracking list is empty




NASA's NSSDC Master Catalog

Two Line Element Set (TLE):
1 61249U 24175G   24325.18041460  .00001160  00000-0  14437-4 0  9992
2 61249  53.1596 235.1233 0001373  84.9421 275.1753 15.69710122  8848
Source of the keplerian elements: AFSPC